Location: City of Moscow
(46.7306°N, 116.9989°W)
Time: 18:06:58
(UTC+00:00)

Meteor 2-20 - Visible Passes

Search period start: 07 March 2026 00:00
Search period end: 17 March 2026 00:00
Orbit: 939 x 957 km, 82.5° (Epoch: 7 March)

Date Brightness Start Highest point End Pass type
(mag) Time Alt. Az. Time Alt. Az. Time Alt. Az.
7 Mar 4.9 03:07:24 10° NNW 03:13:30 64° W 03:19:35 10° S visible
8 Mar 5.7 03:24:47 10° NNW 03:30:33 42° W 03:36:16 10° SSW visible
9 Mar 6.5 03:42:22 10° NNW 03:47:29 28° W 03:52:35 10° SW visible
10 Mar 4.5 02:14:01 10° N 02:20:13 76° E 02:26:22 10° SSE visible
10 Mar 7.1 04:00:16 10° NW 04:04:19 19° W 04:08:22 10° WSW visible
11 Mar 4.8 02:31:12 10° NNW 02:37:23 73° W 02:43:30 10° S visible
11 Mar 7.5 04:19:05 10° WNW 04:21:04 12° WNW 04:23:04 10° W visible
12 Mar 5.6 02:48:33 10° NNW 02:54:27 48° W 03:00:18 10° SSW visible
13 Mar 6.4 03:06:03 10° NNW 03:11:25 32° W 03:16:45 10° SSW visible
13 Mar 8.0 13:09:36 10° E 13:11:13 11° ENE 13:12:52 10° ENE visible
14 Mar 7.1 03:23:50 10° NW 03:28:17 21° W 03:32:44 10° SW visible
14 Mar 7.5 13:24:03 10° ESE 13:27:58 18° E 13:31:53 10° NE visible
15 Mar 7.6 03:42:12 10° NW 03:45:04 14° WNW 03:47:56 10° WSW visible
16 Mar 5.4 02:12:19 10° NNW 02:18:20 55° W 02:24:17 10° SSW visible
